CW9086 Weather Reports


Display with metric or nautical units.
time (UTC)temp
F
wind
direction
speed
MPH
gust
MPH
rain 1hr
in
rain 24hr
in
rain mn
in
humidity
%
barometer
mb
20260831045106 60 212 0.0 1.0 0.00 0.00 0.00 83 1016.0
20260831044605 60 212 0.0 1.0 0.00 0.00 0.00 83 1016.0
20260831044105 60 212 0.0 1.0 0.00 0.00 0.00 83 1016.0
20260831043609 60 212 0.0 1.0 0.00 0.00 0.00 83 1016.1
20260831043106 60 212 0.0 3.0 0.00 0.00 0.00 83 1016.1
20260831042606 60 212 1.0 3.0 0.00 0.00 0.00 83 1016.1
20260831042107 60 212 0.0 3.0 0.00 0.00 0.00 83 1016.0
20260831041105 61 212 1.0 2.0 0.00 0.00 0.00 83 1016.1
20260831011106 65 212 1.0 5.0 0.00 0.00 0.00 76 1017.0
20260831010604 65 213 1.0 5.0 0.00 0.00 0.00 76 1017.1
20260831010105 66 212 1.0 5.0 0.00 0.00 0.00 76 1017.1
20260831005605 66 214 1.0 5.0 0.00 0.00 0.00 76 1017.1
20260831005104 66 212 1.0 3.0 0.00 0.00 0.00 75 1017.1
20260831004605 66 214 1.0 6.0 0.00 0.00 0.00 76 1017.2
20260831004104 67 214 2.0 6.0 0.00 0.00 0.00 75 1017.1
20260831003606 67 210 0.0 3.0 0.00 0.00 0.00 76 1017.2
20260831003104 67 210 1.0 3.0 0.00 0.00 0.00 75 1017.2
20260831002605 67 209 1.0 3.0 0.00 0.00 0.00 75 1017.2
20260831002104 67 215 1.0 3.0 0.00 0.00 0.00 75 1017.2
20260831001606 67 215 0.0 3.0 0.00 0.00 0.00 75 1017.3
20260831001104 67 211 1.0 3.0 0.00 0.00 0.00 74 1017.3
20260831000605 68 211 1.0 2.0 0.00 0.00 0.00 72 1017.4
20260830235606 69 215 1.0 5.0 0.00 0.00 0.00 70 1017.6
20260830235105 70 211 1.0 3.0 0.00 0.00 0.00 70 1017.6
20260830234604 70 211 1.0 3.0 0.00 0.00 0.00 70 1017.7
20260830234105 71 211 1.0 3.0 0.00 0.00 0.00 70 1017.7
20260830233605 71 213 2.0 5.0 0.00 0.00 0.00 70 1017.8
20260830233104 71 213 1.0 5.0 0.00 0.00 0.00 69 1017.9
20260830232604 71 211 1.0 5.0 0.00 0.00 0.00 70 1017.9
20260830232106 71 209 1.0 3.0 0.00 0.00 0.00 69 1017.9
20260830231604 71 209 1.0 3.0 0.00 0.00 0.00 68 1018.0
20260830231104 71 212 1.0 3.0 0.00 0.00 0.00 69 1018.0
20260830230606 71 216 2.0 3.0 0.00 0.00 0.00 69 1018.0
20260830225605 70 211 1.0 3.0 0.00 0.00 0.00 69 1018.0
20260830225106 70 213 1.0 3.0 0.00 0.00 0.00 71 1018.0
20260830224105 70 209 1.0 5.0 0.00 0.00 0.00 70 1018.1
20260830223606 70 213 1.0 5.0 0.00 0.00 0.00 71 1018.1
20260830223104 70 213 2.0 5.0 0.00 0.00 0.00 71 1018.1
20260830222605 70 212 1.0 3.0 0.00 0.00 0.00 71 1018.3
20260830222106 70 209 1.0 3.0 0.00 0.00 0.00 71 1018.3
20260830221604 70 212 2.0 3.0 0.00 0.00 0.00 71 1018.3
20260830220104 70 213 1.0 3.0 0.00 0.00 0.00 71 1018.5
20260830215605 70 211 1.0 3.0 0.00 0.00 0.00 71 1018.5
20260830215104 70 211 1.0 3.0 0.00 0.00 0.00 71 1018.6
20260830214605 70 212 1.0 3.0 0.00 0.00 0.00 71 1018.7
20260830214104 70 209 1.0 3.0 0.00 0.00 0.00 72 1018.7
20260830213104 70 209 1.0 3.0 0.00 0.00 0.00 72 1018.7
20260830212604 70 211 1.0 3.0 0.00 0.00 0.00 71 1018.7
20260830212105 70 209 1.0 3.0 0.00 0.00 0.00 71 1018.8
20260830211106 70 211 1.0 3.0 0.00 0.00 0.00 70 1018.9
20260830210606 69 211 1.0 3.0 0.00 0.00 0.00 71 1019.0
20260830210104 69 212 1.0 3.0 0.00 0.00 0.00 69 1018.9
20260830205606 69 212 1.0 3.0 0.00 0.00 0.00 69 1018.9
20260830205105 69 211 1.0 3.0 0.00 0.00 0.00 68 1018.9
20260830204604 69 209 1.0 3.0 0.00 0.00 0.00 67 1018.9
20260830203605 70 210 1.0 3.0 0.00 0.00 0.00 67 1018.9
20260830203104 69 208 1.0 3.0 0.00 0.00 0.00 70 1018.9
20260830202104 69 213 1.0 3.0 0.00 0.00 0.00 68 1019.1
20260830201605 69 215 1.0 3.0 0.00 0.00 0.00 69 1019.1
20260830200604 69 210 1.0 3.0 0.00 0.00 0.00 69 1019.1
20260830200106 69 210 1.0 3.0 0.00 0.00 0.00 70 1019.0
20260830193605 69 212 0.0 3.0 0.00 0.00 0.00 70 1019.1
20260830193104 69 212 1.0 3.0 0.00 0.00 0.00 69 1019.1
20260830192605 69 212 1.0 3.0 0.00 0.00 0.00 71 1019.1
20260830192105 69 212 1.0 3.0 0.00 0.00 0.00 70 1019.2
20260830191604 69 212 1.0 3.0 0.00 0.00 0.00 70 1019.3
20260830191105 69 210 1.0 3.0 0.00 0.00 0.00 72 1019.3
20260830190604 69 210 1.0 3.0 0.00 0.00 0.00 72 1019.2
20260830190105 69 210 1.0 3.0 0.00 0.00 0.00 72 1019.2
20260830185618 68 210 1.0 3.0 0.00 0.00 0.00 72 1019.2
20260830185106 68 210 1.0 3.0 0.00 0.00 0.00 72 1019.2
20260830184604 68 210 1.0 3.0 0.00 0.00 0.00 72 1019.2
20260830184104 68 209 0.0 3.0 0.00 0.00 0.00 73 1019.3
20260830183607 68 212 1.0 2.0 0.00 0.00 0.00 72 1019.3
20260830183104 68 212 1.0 2.0 0.00 0.00 0.00 72 1019.4
20260830182605 68 211 1.0 3.0 0.00 0.00 0.00 74 1019.4
20260830182104 68 209 1.0 3.0 0.00 0.00 0.00 74 1019.5
20260830181604 68 212 1.0 2.0 0.00 0.00 0.00 75 1019.4
20260830181104 67 212 1.0 3.0 0.00 0.00 0.00 76 1019.4
20260830180604 67 212 1.0 3.0 0.00 0.00 0.00 76 1019.4
20260830180104 67 216 0.0 3.0 0.00 0.00 0.00 76 1019.4
20260830175605 67 218 0.0 3.0 0.00 0.00 0.00 76 1019.4
20260830175105 66 218 1.0 3.0 0.00 0.00 0.00 79 1019.4
20260830174105 65 214 1.0 3.0 0.00 0.00 0.00 80 1019.3
20260830173604 65 214 0.0 3.0 0.00 0.00 0.00 81 1019.3
20260830173104 64 214 1.0 3.0 0.00 0.00 0.00 81 1019.2
20260830172604 64 214 0.0 2.0 0.00 0.00 0.00 81 1019.2
20260830172104 64 214 0.0 2.0 0.00 0.00 0.00 82 1019.2
20260830171104 63 214 0.0 2.0 0.00 0.00 0.00 84 1019.2
20260830170604 63 214 1.0 2.0 0.00 0.00 0.00 85 1019.1
20260830170104 63 214 0.0 2.0 0.00 0.00 0.00 86 1019.1
20260830165604 62 214 0.0 3.0 0.00 0.00 0.00 87 1019.1
20260830165104 62 214 1.0 3.0 0.00 0.00 0.00 88 1019.0
20260830164604 62 214 0.0 3.0 0.00 0.00 0.00 88 1019.1
20260830164104 61 214 0.0 3.0 0.00 0.00 0.00 89 1019.1
20260830163604 61 214 0.0 2.0 0.00 0.00 0.00 89 1019.1
20260830163105 61 214 0.0 2.0 0.00 0.00 0.00 89 1019.1
20260830162106 60 214 0.0 0.0 0.00 0.00 0.00 89 1019.2
20260830161605 60 214 0.0 0.0 0.00 0.00 0.00 89 1019.2
20260830161107 60 214 0.0 0.0 0.00 0.00 0.00 89 1019.1
20260830160605 60 214 0.0 0.0 0.00 0.00 0.00 89 1019.2
20260830155607 60 214 0.0 0.0 0.00 0.00 0.00 90 1019.2
20260830155106 60 214 0.0 0.0 0.00 0.00 0.00 90 1019.2
20260830154604 60 214 0.0 0.0 0.00 0.00 0.00 90 1019.2
20260830154104 60 214 0.0 0.0 0.00 0.00 0.00 90 1019.2
20260830153104 59 214 0.0 0.0 0.00 0.00 0.00 90 1019.2
20260830152605 59 214 0.0 0.0 0.00 0.00 0.00 90 1019.2
20260830152104 58 214 0.0 0.0 0.00 0.00 0.00 90 1019.3
20260830151604 58 214 0.0 0.0 0.00 0.00 0.00 90 1019.3
20260830151104 57 214 0.0 0.0 0.00 0.00 0.00 90 1019.3
20260830150605 56 214 0.0 0.0 0.00 0.00 0.00 90 1019.3
20260830150104 56 214 0.0 0.0 0.00 0.00 0.00 89 1019.3
20260830145604 55 214 0.0 0.0 0.00 0.00 0.00 89 1019.2
20260830145105 55 214 0.0 0.0 0.00 0.00 0.00 89 1019.3
20260830144605 54 214 0.0 0.0 0.00 0.00 0.00 89 1019.1
20260830143605 53 214 0.0 0.0 0.00 0.00 0.00 88 1019.1
20260830143106 53 214 0.0 0.0 0.00 0.00 0.00 88 1019.2
20260830142604 53 214 0.0 0.0 0.00 0.00 0.00 87 1019.2
20260830142104 53 214 0.0 0.0 0.00 0.00 0.00 87 1019.1
20260830141604 53 214 0.0 0.0 0.00 0.00 0.00 87 1019.1
20260830141105 53 214 0.0 0.0 0.00 0.00 0.00 87 1019.0
20260830140104 53 214 0.0 0.0 0.00 0.00 0.00 87 1018.8
20260830135604 53 214 0.0 0.0 0.00 0.00 0.00 87 1018.8
20260830135105 53 214 0.0 0.0 0.00 0.00 0.00 87 1018.7
20260830134605 53 214 0.0 0.0 0.00 0.00 0.00 87 1018.7
20260830134104 53 214 0.0 0.0 0.00 0.00 0.00 87 1018.6
20260830133604 53 214 0.0 0.0 0.00 0.00 0.00 87 1018.6
20260830133104 53 214 0.0 0.0 0.00 0.00 0.00 87 1018.6
20260830132604 53 214 0.0 0.0 0.00 0.00 0.00 86 1018.6
20260830132104 54 214 0.0 0.0 0.00 0.00 0.00 86 1018.7
20260830131604 54 214 0.0 0.0 0.00 0.00 0.00 87 1018.7
20260830131104 54 214 0.0 0.0 0.00 0.00 0.00 87 1018.7
20260830130605 54 214 0.0 0.0 0.00 0.00 0.00 87 1018.7
20260830130106 54 214 0.0 0.0 0.00 0.00 0.00 87 1018.7
20260830125604 55 214 0.0 0.0 0.00 0.00 0.00 87 1018.7
20260830125104 55 214 0.0 0.0 0.00 0.00 0.00 87 1018.7
20260830124605 55 214 0.0 0.0 0.00 0.00 0.00 87 1018.7
20260830124104 55 214 0.0 0.0 0.00 0.00 0.00 87 1018.7
20260830123104 56 214 0.0 0.0 0.00 0.00 0.00 88 1018.8
20260830122603 56 214 0.0 0.0 0.00 0.00 0.00 88 1018.9
20260830122104 56 214 0.0 0.0 0.00 0.00 0.00 88 1018.8
20260830121604 56 214 0.0 0.0 0.00 0.00 0.00 88 1018.9
20260830121104 56 214 0.0 0.0 0.00 0.00 0.00 88 1018.9
20260830120603 56 214 0.0 0.0 0.00 0.00 0.00 88 1018.8
20260830120105 56 214 0.0 0.0 0.00 0.00 0.00 88 1018.8
20260830115604 56 214 0.0 0.0 0.00 0.00 0.00 88 1018.9
20260830115104 56 214 0.0 0.0 0.00 0.00 0.00 88 1019.0
20260830114604 56 214 0.0 0.0 0.00 0.00 0.00 88 1019.0
20260830114104 56 214 0.0 0.0 0.00 0.00 0.00 88 1018.9
20260830113603 56 214 0.0 0.0 0.00 0.00 0.00 88 1018.9
20260830113105 56 214 0.0 0.0 0.00 0.00 0.00 88 1018.8
20260830112605 56 214 0.0 1.0 0.00 0.00 0.00 88 1018.9
20260830112104 56 214 0.0 1.0 0.00 0.00 0.00 88 1018.8
20260830111604 55 214 0.0 1.0 0.00 0.00 0.00 88 1018.8
20260830110605 54 214 0.0 1.0 0.00 0.00 0.00 87 1018.8
20260830110104 54 214 0.0 1.0 0.00 0.00 0.00 87 1018.8
20260830105105 53 214 0.0 0.0 0.00 0.00 0.00 86 1018.8
20260830104105 53 214 0.0 1.0 0.00 0.00 0.00 85 1018.8
20260830103604 53 214 0.0 1.0 0.00 0.00 0.00 84 1018.8
20260830103103 53 214 0.0 0.0 0.00 0.00 0.00 84 1018.7
20260830102604 53 214 0.0 0.0 0.00 0.00 0.00 84 1018.7
20260830102104 53 214 0.0 0.0 0.00 0.00 0.00 83 1018.6
20260830101603 53 214 0.0 0.0 0.00 0.00 0.00 83 1018.6
20260830101103 54 214 0.0 0.0 0.00 0.00 0.00 84 1018.6
20260830100604 54 214 0.0 0.0 0.00 0.00 0.00 83 1018.6
20260830100104 54 214 0.0 0.0 0.00 0.00 0.00 83 1018.6
20260830095605 54 214 0.0 0.0 0.00 0.00 0.00 84 1018.6
20260830095104 55 214 0.0 0.0 0.00 0.00 0.00 84 1018.6
20260830094605 55 214 0.0 0.0 0.00 0.01 0.00 84 1018.6
20260830094103 55 214 0.0 0.0 0.00 0.01 0.00 84 1018.7
20260830093604 55 214 0.0 0.0 0.00 0.03 0.00 84 1018.7
20260830093103 56 214 0.0 0.0 0.00 0.07 0.00 84 1018.6
20260830092604 56 214 0.0 0.0 0.00 0.09 0.00 84 1018.7
20260830092105 56 214 0.0 0.0 0.00 0.10 0.00 84 1018.7
20260830091604 56 214 0.0 0.0 0.00 0.12 0.00 84 1018.7
20260830091106 56 214 0.0 0.0 0.00 0.13 0.00 85 1018.7
20260830090605 57 214 0.0 0.0 0.00 0.13 0.00 85 1018.6
20260830090105 57 214 0.0 0.0 0.00 0.13 0.00 85 1018.7
20260830085607 57 214 0.0 1.0 0.00 0.13 0.00 85 1018.7
20260830084106 57 214 0.0 1.0 0.00 0.13 0.00 85 1018.8
20260830083605 58 214 0.0 1.0 0.00 0.13 0.00 85 1018.9
20260830083107 58 214 0.0 0.0 0.00 0.13 0.00 85 1018.9
20260830082606 58 214 0.0 2.0 0.00 0.13 0.00 85 1018.8
20260830081605 58 212 0.0 2.0 0.00 0.13 0.00 85 1018.8
20260830081106 58 211 0.0 0.0 0.00 0.13 0.00 85 1018.8
20260830080606 58 211 0.0 0.0 0.00 0.13 0.00 85 1018.8
20260830080105 58 211 0.0 0.0 0.00 0.13 0.00 85 1018.8
20260830075605 58 211 0.0 0.0 0.00 0.13 0.00 86 1018.8
20260830075106 58 211 0.0 1.0 0.00 0.13 0.00 86 1018.8
20260830074605 58 211 0.0 1.0 0.00 0.13 0.00 86 1018.8
20260830074105 58 211 0.0 1.0 0.00 0.13 0.00 86 1018.9
20260830073606 58 211 0.0 1.0 0.00 0.13 0.00 86 1018.9
20260830073106 58 211 0.0 3.0 0.00 0.13 0.00 86 1019.0
20260830072606 58 211 1.0 3.0 0.00 0.13 0.00 85 1018.9
20260830072105 58 209 0.0 2.0 0.00 0.13 0.00 85 1019.0
20260830071605 57 209 0.0 2.0 0.00 0.13 0.00 84 1019.0
20260830071110 57 209 0.0 0.0 0.00 0.13 0.00 84 1019.0
20260830065605 58 209 0.0 1.0 0.00 0.13 0.13 83 1019.0
20260830065106 58 209 0.0 1.0 0.00 0.13 0.13 83 1019.0
20260830064606 58 209 0.0 0.0 0.00 0.13 0.13 83 1019.0
20260830064106 58 209 0.0 0.0 0.00 0.13 0.13 84 1019.0
20260830063606 58 209 0.0 1.0 0.00 0.13 0.13 84 1019.0
20260830063106 58 209 0.0 1.0 0.00 0.13 0.13 84 1019.0
20260830062605 58 209 0.0 1.0 0.00 0.13 0.13 84 1019.1
20260830062105 58 209 0.0 1.0 0.00 0.13 0.13 84 1019.1
20260830061606 58 209 0.0 2.0 0.00 0.13 0.13 85 1019.1
20260830061107 58 209 0.0 2.0 0.00 0.13 0.13 85 1019.1
20260830060606 58 209 0.0 2.0 0.00 0.13 0.13 84 1019.1
20260830060105 58 209 0.0 1.0 0.00 0.13 0.13 84 1019.2
20260830054106 58 209 0.0 1.0 0.00 0.13 0.13 84 1019.3
20260830053107 58 209 0.0 0.0 0.00 0.13 0.13 84 1019.3
20260830052606 58 209 0.0 0.0 0.00 0.13 0.13 83 1019.2
20260830051606 58 209 0.0 1.0 0.00 0.13 0.13 83 1019.3
20260830051105 58 209 0.0 1.0 0.00 0.13 0.13 83 1019.3
20260830050605 58 209 0.0 1.0 0.00 0.13 0.13 83 1019.3
20260830050106 58 209 0.0 1.0 0.00 0.13 0.13 83 1019.3
20260830045606 58 209 0.0 0.0 0.00 0.13 0.13 83 1019.2